Weather in Troshkovo

Russia / Sverdlovsk Oblast     57°19′17″N   64°24′27″E
temp.,
°C
wind,
m/s
gust,
m/s
humid.,
%
clouds,
%
prec.,
mm/h
press.,
hPa
HPBL,
m
27 july, tue
tue2723:00+14w2762100 0.0 1014167
02:00+13wsw267077 0.0 1013151
05:00+10wsw36885 0.0 1013105
08:00+16wsw47635 0.0 1011381
11:00+21wsw58424 0.0 10091752
14:00+15wnw71183100 0.5 1008749
17:00+18w587633 1.1 10071225
20:00+15w411825 0.9 1007383
28 july, wed
wed2823:00+11nw412825 0.9 1009407
02:00+8wnw39845 0.0 1009202
05:00+6wnw37915 0.0 1009134
08:00+12w35665 0.0 1009546
11:00+16w4746100 0.0 10082084
14:00+13wnw5863100 0.1 10081390
17:00+14wnw585313 0.1 10081411
20:00+12wnw276616 0.1 1009418
29 july, thu
thu2923:00+7wnw24745 0.1 101069
02:00+6w2382100 0.0 101051
05:00+9wsw2569100 0.0 1010132
08:00+11w4760100 0.0 1010551
11:00+15w574775 0.0 10101520
14:00+18w51045100 0.0 10092029
17:00+19sw385090 0.0 10071267
20:00+16ssw39588 0.0 1007260
30 july, fri
fri3023:00+14sw2276100 0.4 100641
02:00+12sw31079100 0.0 1006173
05:00+12ssw41272100 0.0 1004263
08:00+17sw5115599 0.0 1003522
11:00+18ssw6106193 0.0 10021089
14:00+15sw4884100 0.0 1001729
17:00+18w367657 0.0 1001748
20:00+18nw118297 0.1 100211
31 july, sat
sat3123:00+15nnw2294100 0.1 100315
02:00+13ene119770 0.0 100521
05:00+12ene229811 0.0 100625
08:00+17ese22823 0.0 1007320
11:00+23s226278 0.0 10081189
14:00+23w1260100 0.1 10081023
17:00+25n135295 0.1 10081315
20:00+21ese247124 0.0 100879